Flag for Argentina Weather past 2 weeks in Tucumán, Tucumán, Argentina

Now
68 °F

Drizzle. Fog.


Feels Like: 68 °F
Forecast: 66 / 77 °F
Wind: 5 mph from Southwest

Location: Tucuman Aerodrome

Current Time: Feb 28, 2015 at 11:05:04 AM

Latest Report: Feb 28, 2015 at 10:00 AM


Visibility: 2 mi

Pressure: 30.04 "Hg

Humidity: 100%

Dew point: 68 °F

Location of TucumánLocation

Historic Weather in Tucumán — Graph

°F

Tucumán temperature yesterday

Maximum temperature yesterday: 70 °F (at 2:00 PM)
Minimum temperature yesterday: 66 °F (at 12:00 AM)
Average temperature yesterday: 67 °F

Past Weeks' High & Low Weather Summary

 TemperatureHumidityPressure
High91 °F (Feb 18, 4:00 PM)100% (Feb 16, 8:00 AM)30.12 "Hg (Feb 16, 8:00 AM)
Low61 °F (Feb 20, 7:00 AM)44% (Feb 19, 4:00 PM)29.62 "Hg (Feb 18, 3:00 PM)
Average73 °F83%29.95 "Hg
* Reported Feb 13 9:00 AM — Feb 28 9:00 AM, Tucumán, Weather by CustomWeather, © 2015

Note: Actual official high and low records may vary slightly from our data, if they occured in-between our weather recording intervals... More about our weather records

Advertising

Tucumán weather history for previous 24 hours

 ConditionsComfort  
Time TempWeatherWind HumidityBarometerVisibility
9:00 AM
Sat, Feb 28
68 °FFog.6 mph94%30.04 "Hg3 mi
8:00 AM68 °FDrizzle. Fog.7 mph94%30.04 "Hg1 mi
7:00 AM66 °FDrizzle. Cloudy.5 mph94%30.01 "Hg1 mi
6:00 AM66 °FDrizzle. Overcast.5 mph94%30.01 "Hg1 mi
5:00 AM66 °FMild.5 mph94%30.01 "HgN/A
4:00 AM66 °FDrizzle. Overcast.5 mph94%30.04 "Hg1 mi
3:00 AM66 °FMild.5 mph94%30.04 "HgN/A
2:00 AM66 °FMild.5 mph94%30.04 "HgN/A
1:00 AM66 °FDrizzle. Overcast.7 mph94%30.07 "Hg1 mi
12:00 AM66 °FDrizzle. Overcast.7 mph94%30.07 "Hg1 mi
11:00 PM
Fri, Feb 27
66 °FDrizzle. Mostly cloudy.5 mph100%30.07 "Hg1 mi
10:00 PM66 °FDrizzle. Fog.9 mph100%30.04 "Hg1 mi
9:00 PM66 °FDrizzle. Fog.9 mph100%30.04 "Hg1 mi
8:00 PM66 °FDrizzle. Fog.9 mph100%30.01 "Hg1 mi
7:00 PM68 °FDrizzle. Fog.10 mph94%29.98 "Hg2 mi
6:00 PM68 °FDrizzle. Fog.10 mph94%29.98 "Hg2 mi
4:45 PM70 °FDrizzle. Fog.14 mph94%29.98 "Hg1 mi
4:00 PM70 °FDrizzle. Fog.15 mph88%29.98 "Hg5 mi
3:00 PM70 °FDrizzle. Mostly cloudy.6 mph94%29.98 "Hg5 mi
2:00 PM70 °FDrizzle. Mostly cloudy.6 mph94%30.01 "Hg4 mi
1:00 PM68 °FDrizzle. Fog.7 mph94%30.01 "Hg2 mi
12:00 PM68 °FDrizzle. Fog.7 mph94%30.04 "Hg1 mi
11:00 AM68 °FDrizzle. Fog.8 mph94%30.04 "Hg1 mi
Weather by CustomWeather, © 2015

See weather overviewHow to use our weather pages